,,Stat1,,Stat2,,Stat3,,Stat4,,Wind1,,Wind1,
time,status,PR1M_SUM,status,RH1M_AVG,status,SR1M_AVG,status,TA1M_AVG,status,W1dAve1m,status,W1sAve1m,
1999-09-24, 00:01:00,VALID,0,VALID,99.2144,VALID,0,VALID,19.7915,VALID,164,VALID,0.661765,
1999-09-24, 00:02:00,VALID,0,VALID,99.3276,VALID,0,VALID,19.827,VALID,166,VALID,0.858347,
1999-09-24, 00:03:00,VALID,0,VALID,99.3021,VALID,-0.0339617,VALID,19.8181,VALID,170,VALID,1.0741,
1999-09-24, 00:04:00,VALID,0,VALID,99.2793,VALID,-0.0169808,VALID,19.8019,VALID,173,VALID,1.26102,
1999-09-24, 00:05:00,VALID,0,VALID,99.2767,VALID,0,VALID,19.7887,VALID,194,VALID,0.969806,
1999-09-24, 00:06:00,VALID,0,VALID,99.1763,VALID,0,VALID,19.7534,VALID,201,VALID,1.22297,
1999-09-24, 00:07:00,VALID,0,VALID,99.1648,VALID,-0.0169808,VALID,19.734,VALID,203,VALID,0.873561,
1999-09-24, 00:08:00,VALID,0,VALID,99.2615,VALID,0,VALID,19.7111,VALID,194,VALID,0.964732,
1999-09-24, 00:09:00,VALID,0,VALID,99.339,VALID,-0.0169808,VALID,19.7241,VALID,207,VALID,0.690625,
1999-09-24, 00:10:00,VALID,0,VALID,99.409,VALID,-0.0169808,VALID,19.7178,VALID,203,VALID,0.870703,
1999-09-24, 00:11:00,VALID,0,VALID,99.4153,VALID,0,VALID,19.7275,VALID,202,VALID,0.620028,
1999-09-24, 00:12:00,VALID,0,VALID,99.3187,VALID,-0.0169808,VALID,19.6758,VALID,188,VALID,0.554688,
1999-09-24, 00:13:00,VALID,0,VALID,99.3899,VALID,0,VALID,19.6499,VALID,194,VALID,0.796453,
1999-09-24, 00:14:00,VALID,0,VALID,99.414,VALID,-0.0509425,VALID,19.6465,VALID,192,VALID,1.18243,
1999-09-24, 00:15:00,VALID,0,VALID,99.4891,VALID,-0.0169808,VALID,19.627,VALID,187,VALID,1.36061,
1999-09-24, 00:16:00,VALID,0,VALID,99.5476,VALID,-0.0169808,VALID,19.6375,VALID,190,VALID,1.20759,
1999-09-24, 00:17:00,VALID,0,VALID,99.6468,VALID,-0.0169808,VALID,19.6375,VALID,195,VALID,1.16348,
1999-09-24, 00:18:00,VALID,0,VALID,99.6429,VALID,-0.0339617,VALID,19.641,VALID,202,VALID,1.06152,
1999-09-24, 00:19:00,VALID,0,VALID,99.6518,VALID,-0.0509425,VALID,19.6213,VALID,199,VALID,0.710938,
1999-09-24, 00:20:00,VALID,0,VALID,99.6938,VALID,-0.0849042,VALID,19.6181,VALID,196,VALID,0.906039,
1999-09-24, 00:21:00,VALID,0,VALID,99.7002,VALID,-0.0679233,VALID,19.6054,VALID,202,VALID,0.990287,
1999-09-24, 00:22:00,VALID,0,VALID,99.7561,VALID,-0.0169808,VALID,19.6146,VALID,200,VALID,0.944257,
1999-09-24, 00:23:00,VALID,0,VALID,99.8286,VALID,-0.0339617,VALID,19.6367,VALID,195,VALID,1.1398,
1999-09-24, 00:24:00,VALID,0,VALID,99.8655,VALID,-0.0169808,VALID,19.6925,VALID,191,VALID,0.828125,
1999-09-24, 00:25:00,VALID,0,VALID,99.8248,VALID,-0.0169808,VALID,19.6758,VALID,173,VALID,0.9375,
1999-09-24, 00:26:00,VALID,0,VALID,99.7675,VALID,0,VALID,19.6636,VALID,173,VALID,0.886719,
1999-09-24, 00:27:00,VALID,0,VALID,99.8146,VALID,-0.0509425,VALID,19.6726,VALID,184,VALID,0.792614,
1999-09-24, 00:28:00,VALID,0,VALID,99.91,VALID,-0.0509425,VALID,19.7283,VALID,200,VALID,0.814611,
1999-09-24, 00:29:00,VALID,0,VALID,99.84,VALID,-0.0679233,VALID,19.7149,VALID,197,VALID,0.752111,
1999-09-24, 00:30:00,VALID,0,VALID,99.7917,VALID,-0.0339617,VALID,19.7154,VALID,189,VALID,0.825802,
1999-09-24, 00:31:00,VALID,0,VALID,99.7841,VALID,-0.0339617,VALID,19.7086,VALID,198,VALID,0.863692,
1999-09-24, 00:32:00,VALID,0,VALID,99.7726,VALID,-0.0679233,VALID,19.689,VALID,203,VALID,0.853348,
1999-09-24, 00:33:01,VALID,0,VALID,99.8184,VALID,0,VALID,19.7086,VALID,192,VALID,0.883594,
1999-09-24, 00:34:00,VALID,0,VALID,99.7726,VALID,-0.0339617,VALID,19.7091,VALID,196,VALID,1.03203,
1999-09-24, 00:35:00,VALID,0,VALID,99.8299,VALID,-0.0169808,VALID,19.7181,VALID,184,VALID,0.681818,
1999-09-24, 00:36:00,VALID,0,VALID,99.5107,VALID,-0.0339617,VALID,19.5726,VALID,174,VALID,0.425887,
1999-09-24, 00:37:00,VALID,0,VALID,99.1724,VALID,-0.0169808,VALID,19.4141,VALID,167,VALID,0.470861,
1999-09-24, 00:38:00,VALID,0,VALID,99.0427,VALID,-0.0509425,VALID,19.3502,VALID,167,VALID,0.1894,
1999-09-24, 00:39:00,VALID,0,VALID,98.8406,VALID,-0.101885,VALID,19.2853,VALID,167,VALID,0.0172697,
1999-09-24, 00:40:00,VALID,0,VALID,98.7554,VALID,-0.0849042,VALID,19.2495,VALID,167,VALID,0,
1999-09-24, 00:41:00,VALID,0,VALID,98.7859,VALID,-0.0509425,VALID,19.2266,VALID,139,VALID,0,
1999-09-24, 00:42:00,VALID,0,VALID,99.058,VALID,-0.0849042,VALID,19.282,VALID,338,VALID,0,
1999-09-24, 00:43:00,VALID,0,VALID,99.367,VALID,-0.0509425,VALID,19.3534,VALID,336,VALID,0,
1999-09-24, 00:44:00,VALID,0,VALID,99.4878,VALID,-0.0509425,VALID,19.4024,VALID,343,VALID,0.35853,
1999-09-24, 00:45:00,VALID,0,VALID,99.5374,VALID,-0.0509425,VALID,19.4377,VALID,351,VALID,0.275971,
1999-09-24, 00:46:00,VALID,0,VALID,99.5476,VALID,-0.0339617,VALID,19.4698,VALID,351,VALID,0.284417,
1999-09-24, 00:47:00,VALID,0,VALID,99.5565,VALID,-0.0679233,VALID,19.483,VALID,351,VALID,0.192229,
1999-09-24, 00:48:00,VALID,0,VALID,99.5565,VALID,0,VALID,19.4925,VALID,12,VALID,0.000446429,
1999-09-24, 00:49:00,VALID,0,VALID,99.5641,VALID,-0.0339617,VALID,19.5089,VALID,118,VALID,0.344336,
1999-09-24, 00:50:00,VALID,0,VALID,99.5883,VALID,-0.0339617,VALID,19.5477,VALID,118,VALID,0.0398437,
1999-09-24, 00:51:00,VALID,0,VALID,99.6264,VALID,0,VALID,19.5596,VALID,118,VALID,0,
1999-09-24, 00:52:00,VALID,0,VALID,99.6506,VALID,-0.0169808,VALID,19.5989,VALID,118,VALID,0,
1999-09-24, 00:53:00,VALID,0,VALID,99.6607,VALID,-0.0509425,VALID,19.6114,VALID,131,VALID,0,
1999-09-24, 00:54:00,VALID,0,VALID,99.6061,VALID,-0.0339617,VALID,19.6186,VALID,157,VALID,0,
1999-09-24, 00:55:00,VALID,0,VALID,99.6785,VALID,-0.0679233,VALID,19.6542,VALID,161,VALID,0,
1999-09-24, 00:56:00,VALID,0,VALID,99.7434,VALID,-0.0679233,VALID,19.6964,VALID,161,VALID,0,
1999-09-24, 00:57:00,VALID,0,VALID,99.7637,VALID,-0.0169808,VALID,19.7343,VALID,161,VALID,0,
1999-09-24, 00:58:00,VALID,0,VALID,99.6633,VALID,-0.0169808,VALID,19.7218,VALID,184,VALID,0.235742,
1999-09-24, 00:59:00,VALID,0,VALID,99.6277,VALID,-0.0509425,VALID,19.7027,VALID,201,VALID,0.397491,
1999-09-24, 01:00:00,VALID,0,VALID,99.6417,VALID,-0.0339617,VALID,19.6825,VALID,202,VALID,0.0969172,
1999-09-24, 01:01:00,VALID,0,VALID,99.648,VALID,-0.0339617,VALID,19.6959,VALID,193,VALID,0.186022,
1999-09-24, 01:02:00,VALID,0,VALID,99.5069,VALID,-0.0679233,VALID,19.634,VALID,167,VALID,0.47614,
1999-09-24, 01:03:00,VALID,0,VALID,99.4865,VALID,-0.0169808,VALID,19.6089,VALID,163,VALID,0.493215,
1999-09-24, 01:04:00,VALID,0,VALID,99.5183,VALID,-0.0509425,VALID,19.6149,VALID,169,VALID,0.349777,
1999-09-24, 01:05:00,VALID,0,VALID,99.5374,VALID,0,VALID,19.5977,VALID,170,VALID,0.364258,
1999-09-24, 01:06:00,VALID,0,VALID,99.5806,VALID,0.0849042,VALID,19.6042,VALID,170,VALID,0.1125,
1999-09-24, 01:07:01,VALID,0,VALID,99.5997,VALID,0.0849042,VALID,19.6004,VALID,170,VALID,0,
1999-09-24, 01:08:00,VALID,0,VALID,99.6518,VALID,0.0849042,VALID,19.6305,VALID,172,VALID,0,
1999-09-24, 01:09:00,VALID,0,VALID,99.6366,VALID,0.0509425,VALID,19.63,VALID,200,VALID,0.354307,
1999-09-24, 01:10:00,VALID,0,VALID,99.6518,VALID,0.0509425,VALID,19.6363,VALID,230,VALID,0.170186,
1999-09-24, 01:11:00,VALID,0,VALID,99.662,VALID,0.0509425,VALID,19.6392,VALID,239,VALID,0.234581,
1999-09-24, 01:12:00,VALID,0,VALID,99.6709,VALID,0.0339617,VALID,19.6591,VALID,239,VALID,0.209598,
1999-09-24, 01:13:00,VALID,0,VALID,99.5895,VALID,0.0509425,VALID,19.6266,VALID,231,VALID,0.461719,
1999-09-24, 01:14:00,VALID,0,VALID,99.5819,VALID,0.0509425,VALID,19.6072,VALID,224,VALID,0.255469,
1999-09-24, 01:15:00,VALID,0,VALID,99.6073,VALID,0.0679233,VALID,19.6039,VALID,212,VALID,0.0284091,
1999-09-24, 01:16:00,VALID,0,VALID,99.6378,VALID,0.0679233,VALID,19.597,VALID,213,VALID,0.116976,
1999-09-24, 01:17:00,VALID,0,VALID,99.6658,VALID,0.0509425,VALID,19.6164,VALID,221,VALID,0,
1999-09-24, 01:18:00,VALID,0,VALID,99.6709,VALID,0.0679233,VALID,19.6198,VALID,222,VALID,0.539274,
1999-09-24, 01:19:00,VALID,0,VALID,99.6226,VALID,0.0339617,VALID,19.6004,VALID,228,VALID,0.697368,
1999-09-24, 01:20:00,VALID,0,VALID,99.6569,VALID,0.0169808,VALID,19.6017,VALID,223,VALID,0.548437,
1999-09-24, 01:21:00,VALID,0,VALID,99.6963,VALID,0,VALID,19.5882,VALID,234,VALID,0.650195,
1999-09-24, 01:22:00,VALID,0,VALID,99.7154,VALID,-0.0169808,VALID,19.6186,VALID,225,VALID,0.723437,
1999-09-24, 01:23:00,VALID,0,VALID,99.718,VALID,0,VALID,19.6014,VALID,213,VALID,0.45928,
1999-09-24, 01:24:00,VALID,0,VALID,99.6989,VALID,0,VALID,19.5989,VALID,219,VALID,0.494932,
1999-09-24, 01:25:00,VALID,0,VALID,99.7459,VALID,-0.0169808,VALID,19.5858,VALID,237,VALID,0.182644,
1999-09-24, 01:26:00,VALID,0,VALID,99.7497,VALID,-0.0339617,VALID,19.586,VALID,266,VALID,0.296875,
1999-09-24, 01:27:00,VALID,0,VALID,99.7345,VALID,0,VALID,19.5691,VALID,250,VALID,0.32977,
1999-09-24, 01:28:00,VALID,0,VALID,99.7358,VALID,-0.0169808,VALID,19.5566,VALID,245,VALID,0.286607,
1999-09-24, 01:29:01,VALID,0,VALID,99.7472,VALID,-0.0169808,VALID,19.5539,VALID,233,VALID,0.0603516,
1999-09-24, 01:30:00,VALID,0,VALID,99.751,VALID,0,VALID,19.5405,VALID,233,VALID,0,
1999-09-24, 01:31:00,VALID,0,VALID,99.7332,VALID,0.0169808,VALID,19.5109,VALID,233,VALID,0,
1999-09-24, 01:32:00,VALID,0,VALID,99.7408,VALID,-0.0169808,VALID,19.5111,VALID,233,VALID,0.0168919,
1999-09-24, 01:33:00,VALID,0,VALID,99.7167,VALID,-0.0169808,VALID,19.4853,VALID,233,VALID,0,
1999-09-24, 01:34:00,VALID,0,VALID,99.7141,VALID,0,VALID,19.4559,VALID,237,VALID,0,
1999-09-24, 01:35:00,VALID,0,VALID,99.737,VALID,0.0509425,VALID,19.4487,VALID,178,VALID,0,
1999-09-24, 01:36:00,VALID,0,VALID,99.7917,VALID,0.118866,VALID,19.4679,VALID,119,VALID,0,
1999-09-24, 01:37:00,VALID,0,VALID,99.826,VALID,0.101885,VALID,19.4776,VALID,119,VALID,0,
1999-09-24, 01:38:00,VALID,0,VALID,99.7866,VALID,0.101885,VALID,19.4415,VALID,119,VALID,0,
1999-09-24, 01:39:00,VALID,0,VALID,99.7485,VALID,0.101885,VALID,19.4124,VALID,119,VALID,0,
1999-09-24, 01:40:01,VALID,0,VALID,99.7243,VALID,0.101885,VALID,19.3865,VALID,255,VALID,0,
1999-09-24, 01:41:00,VALID,0,VALID,99.751,VALID,0.101885,VALID,19.3806,VALID,263,VALID,0,
1999-09-24, 01:42:00,VALID,0,VALID,99.8032,VALID,0.101885,VALID,19.3808,VALID,251,VALID,0,
1999-09-24, 01:43:00,VALID,0,VALID,99.84,VALID,0.101885,VALID,19.3803,VALID,253,VALID,0,
1999-09-24, 01:44:00,VALID,0,VALID,99.8375,VALID,0.101885,VALID,19.387,VALID,269,VALID,0,
1999-09-24, 01:45:00,VALID,0,VALID,99.8273,VALID,0.0849042,VALID,19.3768,VALID,271,VALID,0,
1999-09-24, 01:46:00,VALID,0,VALID,99.8349,VALID,0.101885,VALID,19.3642,VALID,264,VALID,0,
1999-09-24, 01:47:00,VALID,0,VALID,99.8706,VALID,0.0849042,VALID,19.3806,VALID,251,VALID,0,
1999-09-24, 01:48:00,VALID,0,VALID,99.8464,VALID,0.101885,VALID,19.3577,VALID,225,VALID,0.361064,
1999-09-24, 01:49:00,VALID,0,VALID,99.8655,VALID,0.118866,VALID,19.3642,VALID,254,VALID,0.472128,
1999-09-24, 01:50:00,VALID,0,VALID,99.9125,VALID,0.0339617,VALID,19.3614,VALID,263,VALID,0.415118,
1999-09-24, 01:51:01,VALID,0,VALID,99.9809,VALID,0,VALID,19.4079,VALID,264,VALID,0.269942,
1999-09-24, 01:52:00,VALID,0,VALID,99.9659,VALID,0,VALID,19.4203,VALID,252,VALID,0.298214,
1999-09-24, 01:53:00,VALID,0,VALID,99.9532,VALID,-0.0169808,VALID,19.4305,VALID,242,VALID,0.33125,
1999-09-24, 01:54:00,VALID,0,VALID,99.9819,VALID,0,VALID,19.4271,VALID,217,VALID,0.2,
1999-09-24, 01:55:00,VALID,0,VALID,99.9977,VALID,0,VALID,19.4427,VALID,217,VALID,0,
1999-09-24, 01:56:00,VALID,0,VALID,100,VALID,0,VALID,19.4587,VALID,217,VALID,0,
1999-09-24, 01:57:00,VALID,0,VALID,100,VALID,0,VALID,19.4825,VALID,240,VALID,0.103885,
1999-09-24, 01:58:00,VALID,0,VALID,99.9954,VALID,0,VALID,19.489,VALID,246,VALID,0.0337838,
1999-09-24, 01:59:00,VALID,0,VALID,99.9845,VALID,0,VALID,19.479,VALID,224,VALID,0.108347,
1999-09-24, 02:00:00,VALID,0,VALID,99.9596,VALID,0,VALID,19.443,VALID,187,VALID,0.360045,
1999-09-24, 02:01:01,VALID,0,VALID,99.896,VALID,0,VALID,19.3912,VALID,172,VALID,0.551758,
1999-09-24, 02:02:01,VALID,0,VALID,99.9354,VALID,0,VALID,19.3783,VALID,142,VALID,0.748438,
1999-09-24, 02:03:00,VALID,0,VALID,99.9456,VALID,0,VALID,19.3624,VALID,120,VALID,1.16288,
1999-09-24, 02:04:00,VALID,0,VALID,99.9519,VALID,-0.0169808,VALID,19.3335,VALID,119,VALID,1.08784,
1999-09-24, 02:05:00,VALID,0,VALID,99.9468,VALID,0,VALID,19.3069,VALID,111,VALID,1.0416,
1999-09-24, 02:06:00,VALID,0,VALID,99.9685,VALID,0,VALID,19.3039,VALID,132,VALID,0.746622,
1999-09-24, 02:07:00,VALID,0,VALID,99.971,VALID,0,VALID,19.291,VALID,146,VALID,0.877673,
1999-09-24, 02:08:00,VALID,0,VALID,99.9865,VALID,0,VALID,19.2783,VALID,139,VALID,0.651563,
1999-09-24, 02:09:00,VALID,0,VALID,99.998,VALID,0.0169808,VALID,19.2651,VALID,132,VALID,0.510156,
1999-09-24, 02:10:00,VALID,0,VALID,100,VALID,-0.0169808,VALID,19.2592,VALID,124,VALID,1.0541,
1999-09-24, 02:11:00,VALID,0,VALID,100,VALID,0.0169808,VALID,19.2427,VALID,114,VALID,0.745265,
1999-09-24, 02:12:00,VALID,0,VALID,100,VALID,-0.0339617,VALID,19.2557,VALID,98,VALID,1.07073,
1999-09-24, 02:13:01,VALID,0,VALID,100,VALID,0,VALID,19.2654,VALID,117,VALID,0.884924,
1999-09-24, 02:14:00,VALID,0,VALID,100,VALID,-0.0169808,VALID,19.2718,VALID,113,VALID,0.943412,
1999-09-24, 02:15:00,VALID,0,VALID,100,VALID,-0.0169808,VALID,19.2853,VALID,98,VALID,0.72574,
1999-09-24, 02:16:00,VALID,0,VALID,100,VALID,-0.0339617,VALID,19.3052,VALID,136,VALID,0.525893,
1999-09-24, 02:17:00,VALID,0,VALID,100,VALID,-0.0169808,VALID,19.2788,VALID,158,VALID,0.501172,
1999-09-24, 02:18:00,VALID,0,VALID,100,VALID,-0.0509425,VALID,19.2651,VALID,153,VALID,0.255859,
1999-09-24, 02:19:00,VALID,0,VALID,100,VALID,-0.0339617,VALID,19.2689,VALID,139,VALID,0.13447,
1999-09-24, 02:20:00,VALID,0,VALID,100,VALID,-0.0509425,VALID,19.2823,VALID,132,VALID,0.0671453,
1999-09-24, 02:21:00,VALID,0,VALID,100,VALID,-0.0339617,VALID,19.2726,VALID,127,VALID,0.425887,
1999-09-24, 02:22:00,VALID,0,VALID,100,VALID,-0.0339617,VALID,19.2786,VALID,164,VALID,0.298564,
1999-09-24, 02:23:00,VALID,0,VALID,100,VALID,-0.0169808,VALID,19.2756,VALID,233,VALID,0.0653783,
1999-09-24, 02:24:01,VALID,0,VALID,100,VALID,-0.0849042,VALID,19.2502,VALID,225,VALID,0,
1999-09-24, 02:25:00,VALID,0,VALID,100,VALID,-0.0679233,VALID,19.2467,VALID,218,VALID,0.282813,
1999-09-24, 02:26:00,VALID,0,VALID,99.9967,VALID,-0.0339617,VALID,19.198,VALID,195,VALID,0.908789,
1999-09-24, 02:27:00,VALID,0,VALID,99.9954,VALID,0,VALID,19.1298,VALID,159,VALID,0.88589,
1999-09-24, 02:28:00,VALID,0,VALID,100,VALID,0,VALID,19.1144,VALID,161,VALID,0.693201,
1999-09-24, 02:29:00,VALID,0,VALID,100,VALID,-0.0339617,VALID,19.1014,VALID,143,VALID,0.650338,
1999-09-24, 02:30:00,VALID,0,VALID,100,VALID,0,VALID,19.0945,VALID,171,VALID,0.705448,
1999-09-24, 02:31:00,VALID,0,VALID,100,VALID,-0.0339617,VALID,19.0816,VALID,183,VALID,0.832031,
1999-09-24, 02:32:00,VALID,0,VALID,100,VALID,-0.0339617,VALID,19.0624,VALID,196,VALID,0.470759,
1999-09-24, 02:33:01,VALID,0,VALID,100,VALID,-0.0339617,VALID,19.0626,VALID,194,VALID,0.490039,
1999-09-24, 02:34:00,VALID,0,VALID,100,VALID,-0.0169808,VALID,19.0594,VALID,214,VALID,0.607422,
1999-09-24, 02:35:00,VALID,0,VALID,100,VALID,0,VALID,19.0395,VALID,201,VALID,0.948864,
1999-09-24, 02:36:00,VALID,0,VALID,100,VALID,-0.0339617,VALID,19.0236,VALID,186,VALID,1.03484,
1999-09-24, 02:37:00,VALID,0,VALID,100,VALID,-0.0509425,VALID,18.9945,VALID,168,VALID,0.873522,
1999-09-24, 02:38:00,VALID,0,VALID,100,VALID,-0.0169808,VALID,18.9612,VALID,183,VALID,1.07306,
1999-09-24, 02:39:00,VALID,0,VALID,100,VALID,0,VALID,18.9589,VALID,182,VALID,1.00267,
1999-09-24, 02:40:00,VALID,0,VALID,100,VALID,-0.0509425,VALID,18.9326,VALID,165,VALID,0.891518,
1999-09-24, 02:41:00,VALID,0,VALID,100,VALID,-0.0169808,VALID,18.894,VALID,150,VALID,1.8625,
1999-09-24, 02:42:00,VALID,0,VALID,100,VALID,0,VALID,18.8719,VALID,150,VALID,1.58281,
1999-09-24, 02:43:00,VALID,0,VALID,100,VALID,-0.0169808,VALID,18.8589,VALID,140,VALID,1.2358,
1999-09-24, 02:44:00,VALID,0,VALID,100,VALID,0,VALID,18.8587,VALID,150,VALID,0.920819,
1999-09-24, 02:45:00,VALID,0,VALID,100,VALID,-0.0169808,VALID,18.8259,VALID,171,VALID,0.933699,
1999-09-24, 02:46:00,VALID,0,VALID,100,VALID,-0.0339617,VALID,18.8199,VALID,163,VALID,1.15076,
1999-09-24, 02:47:00,VALID,0,VALID,100,VALID,-0.0169808,VALID,18.8003,VALID,155,VALID,1.15296,
1999-09-24, 02:48:00,VALID,0,VALID,100,VALID,-0.0509425,VALID,18.8065,VALID,178,VALID,1.13772,
1999-09-24, 02:49:00,VALID,0,VALID,100,VALID,-0.0339617,VALID,18.8104,VALID,196,VALID,0.876953,
1999-09-24, 02:50:00,VALID,0,VALID,100,VALID,-0.0679233,VALID,18.7943,VALID,220,VALID,0.905859,
1999-09-24, 02:51:00,VALID,0,VALID,100,VALID,-0.0679233,VALID,18.7913,VALID,213,VALID,0.927557,
1999-09-24, 02:52:00,VALID,0,VALID,100,VALID,0,VALID,18.7582,VALID,194,VALID,1.08235,
1999-09-24, 02:53:00,VALID,0,VALID,100,VALID,-0.0339617,VALID,18.7393,VALID,199,VALID,0.829392,
1999-09-24, 02:54:00,VALID,0,VALID,100,VALID,-0.0509425,VALID,18.7331,VALID,216,VALID,0.879012,
1999-09-24, 02:55:00,VALID,0,VALID,100,VALID,-0.0339617,VALID,18.7264,VALID,213,VALID,1.01398,
1999-09-24, 02:56:00,VALID,0,VALID,100,VALID,-0.0169808,VALID,18.7199,VALID,194,VALID,0.743973,
1999-09-24, 02:57:00,VALID,0,VALID,100,VALID,0,VALID,18.7105,VALID,187,VALID,0.903125,
1999-09-24, 02:58:00,VALID,0,VALID,100,VALID,-0.0169808,VALID,18.6975,VALID,174,VALID,1.14355,
1999-09-24, 02:59:00,VALID,0,VALID,100,VALID,-0.0339617,VALID,18.6978,VALID,181,VALID,0.87358,
1999-09-24, 03:00:00,VALID,0,VALID,100,VALID,-0.0339617,VALID,18.6717,VALID,193,VALID,0.992188,
1999-09-24, 03:01:00,VALID,0,VALID,100,VALID,-0.0169808,VALID,18.6751,VALID,206,VALID,0.646748,
1999-09-24, 03:02:00,VALID,0,VALID,100,VALID,-0.0339617,VALID,18.6687,VALID,216,VALID,0.745355,
1999-09-24, 03:03:00,VALID,0,VALID,100,VALID,-0.0339617,VALID,18.6557,VALID,198,VALID,0.730469,
1999-09-24, 03:04:00,VALID,0,VALID,100,VALID,-0.0339617,VALID,18.6486,VALID,193,VALID,0.985937,
1999-09-24, 03:05:00,VALID,0,VALID,100,VALID,-0.0849042,VALID,18.6259,VALID,188,VALID,0.8625,
1999-09-24, 03:06:00,VALID,0,VALID,100,VALID,-0.0679233,VALID,18.6169,VALID,181,VALID,0.79707,
1999-09-24, 03:07:01,VALID,0,VALID,100,VALID,-0.0339617,VALID,18.6105,VALID,213,VALID,0.553504,
1999-09-24, 03:08:00,VALID,0,VALID,100,VALID,-0.0679233,VALID,18.5881,VALID,216,VALID,0.440667,
1999-09-24, 03:09:00,VALID,0,VALID,100,VALID,-0.0679233,VALID,18.5781,VALID,212,VALID,0.795397,
1999-09-24, 03:10:00,VALID,0,VALID,100,VALID,-0.0169808,VALID,18.5553,VALID,198,VALID,0.863387,
1999-09-24, 03:11:00,VALID,0,VALID,100,VALID,-0.0509425,VALID,18.5687,VALID,184,VALID,0.778783,
1999-09-24, 03:12:00,VALID,0,VALID,100,VALID,-0.0509425,VALID,18.562,VALID,174,VALID,0.916741,
1999-09-24, 03:13:00,VALID,0,VALID,100,VALID,-0.0679233,VALID,18.5781,VALID,176,VALID,0.851563,
1999-09-24, 03:14:00,VALID,0,VALID,100,VALID,-0.0679233,VALID,18.562,VALID,178,VALID,0.78457,
1999-09-24, 03:15:00,VALID,0,VALID,100,VALID,-0.0509425,VALID,18.5393,VALID,185,VALID,0.700284,
1999-09-24, 03:16:00,VALID,0,VALID,100,VALID,-0.0849042,VALID,18.5105,VALID,169,VALID,0.776605,
1999-09-24, 03:17:00,VALID,0,VALID,100,VALID,-0.0339617,VALID,18.4687,VALID,166,VALID,1.15097,
1999-09-24, 03:18:00,VALID,0,VALID,100,VALID,-0.0679233,VALID,18.4774,VALID,172,VALID,1.03463,
1999-09-24, 03:19:00,VALID,0,VALID,100,VALID,-0.0169808,VALID,18.455,VALID,176,VALID,0.801604,
1999-09-24, 03:20:00,VALID,0,VALID,100,VALID,-0.0169808,VALID,18.4063,VALID,167,VALID,1.08906,
1999-09-24, 03:21:00,VALID,0,VALID,100,VALID,-0.0339617,VALID,18.446,VALID,175,VALID,1.15684,
1999-09-24, 03:22:00,VALID,0,VALID,100,VALID,-0.0849042,VALID,18.4456,VALID,162,VALID,1.13262,
1999-09-24, 03:23:00,VALID,0,VALID,100,VALID,0,VALID,18.4202,VALID,162,VALID,0.985559,
1999-09-24, 03:24:00,VALID,0,VALID,100,VALID,-0.0509425,VALID,18.3842,VALID,176,VALID,1.01943,
1999-09-24, 03:25:00,VALID,0,VALID,100,VALID,-0.0509425,VALID,18.4271,VALID,184,VALID,1.48015,
1999-09-24, 03:26:00,VALID,0,VALID,100,VALID,-0.0169808,VALID,18.449,VALID,179,VALID,1.54793,
1999-09-24, 03:27:00,VALID,0,VALID,100,VALID,-0.0679233,VALID,18.42,VALID,162,VALID,1.37233,
1999-09-24, 03:28:00,VALID,0,VALID,100,VALID,-0.0339617,VALID,18.3618,VALID,153,VALID,1.29621,
1999-09-24, 03:29:01,VALID,0,VALID,100,VALID,-0.0339617,VALID,18.3193,VALID,177,VALID,1.5793,
1999-09-24, 03:30:00,VALID,0,VALID,100,VALID,-0.0169808,VALID,18.3516,VALID,164,VALID,1.34082,
1999-09-24, 03:31:00,VALID,0,VALID,100,VALID,-0.0509425,VALID,18.3384,VALID,157,VALID,2.08428,
1999-09-24, 03:32:00,VALID,0,VALID,100,VALID,-0.0339617,VALID,18.3558,VALID,167,VALID,1.18602,
1999-09-24, 03:33:00,VALID,0,VALID,100,VALID,-0.0509425,VALID,18.3322,VALID,186,VALID,0.954181,
1999-09-24, 03:34:00,VALID,0,VALID,100,VALID,-0.0169808,VALID,18.3421,VALID,190,VALID,1.40878,
1999-09-24, 03:35:00,VALID,0,VALID,100,VALID,0,VALID,18.3424,VALID,183,VALID,1.81476,
1999-09-24, 03:36:00,VALID,0,VALID,100,VALID,-0.0509425,VALID,18.368,VALID,182,VALID,1.32344,
1999-09-24, 03:37:00,VALID,0,VALID,100,VALID,0,VALID,18.3742,VALID,188,VALID,1.40547,
1999-09-24, 03:38:00,VALID,0,VALID,100,VALID,-0.0169808,VALID,18.3809,VALID,175,VALID,1.32324,
1999-09-24, 03:39:00,VALID,0,VALID,100,VALID,-0.0169808,VALID,18.3715,VALID,158,VALID,1.22301,
1999-09-24, 03:40:00,VALID,0,VALID,100,VALID,-0.0339617,VALID,18.3394,VALID,175,VALID,1.24219,
1999-09-24, 03:41:00,VALID,0,VALID,100,VALID,-0.0169808,VALID,18.3324,VALID,186,VALID,1.45207,
1999-09-24, 03:42:00,VALID,0,VALID,100,VALID,0,VALID,18.3456,VALID,178,VALID,1.45671,
1999-09-24, 03:43:00,VALID,0,VALID,100,VALID,-0.0169808,VALID,18.3486,VALID,173,VALID,1.48787,
1999-09-24, 03:44:00,VALID,0,VALID,100,VALID,-0.0169808,VALID,18.3548,VALID,185,VALID,0.963616,
1999-09-24, 03:45:00,VALID,0,VALID,100,VALID,-0.0509425,VALID,18.3451,VALID,184,VALID,0.678906,
1999-09-24, 03:46:00,VALID,0,VALID,100,VALID,-0.0169808,VALID,18.3618,VALID,187,VALID,0.981641,
1999-09-24, 03:47:00,VALID,0,VALID,100,VALID,-0.0339617,VALID,18.3682,VALID,173,VALID,1.15507,
1999-09-24, 03:48:00,VALID,0,VALID,100,VALID,-0.0169808,VALID,18.3842,VALID,187,VALID,1.06039,
1999-09-24, 03:49:00,VALID,0,VALID,100,VALID,-0.0169808,VALID,18.3712,VALID,193,VALID,1.00042,
1999-09-24, 03:50:00,VALID,0,VALID,100,VALID,-0.0339617,VALID,18.3685,VALID,188,VALID,1.19383,
1999-09-24, 03:51:00,VALID,0,VALID,100,VALID,-0.0169808,VALID,18.362,VALID,186,VALID,1.14433,
1999-09-24, 03:52:00,VALID,0,VALID,100,VALID,-0.0169808,VALID,18.3581,VALID,205,VALID,1.26272,
1999-09-24, 03:53:00,VALID,0,VALID,100,VALID,-0.0339617,VALID,18.3745,VALID,186,VALID,1.17754,
1999-09-24, 03:54:00,VALID,0,VALID,100,VALID,-0.0169808,VALID,18.3648,VALID,181,VALID,0.851172,
1999-09-24, 03:55:00,VALID,0,VALID,100,VALID,-0.0339617,VALID,18.3359,VALID,195,VALID,0.648201,
1999-09-24, 03:56:00,VALID,0,VALID,100,VALID,0,VALID,18.3458,VALID,204,VALID,0.952492,
1999-09-24, 03:57:00,VALID,0,VALID,100,VALID,-0.0339617,VALID,18.3456,VALID,216,VALID,0.921453,
1999-09-24, 03:58:00,VALID,0,VALID,100,VALID,-0.0339617,VALID,18.3555,VALID,217,VALID,0.949324,
1999-09-24, 03:59:00,VALID,0,VALID,100,VALID,-0.0339617,VALID,18.3294,VALID,216,VALID,1.62253,
1999-09-24, 04:00:00,VALID,0,VALID,100,VALID,0,VALID,18.3391,VALID,231,VALID,1.66429,
1999-09-24, 04:01:01,VALID,0,VALID,100,VALID,-0.0169808,VALID,18.3456,VALID,237,VALID,1.60371,
1999-09-24, 04:02:01,VALID,0,VALID,100,VALID,-0.0169808,VALID,18.3521,VALID,223,VALID,1.47461,
1999-09-24, 04:03:00,VALID,0,VALID,100,VALID,-0.0339617,VALID,18.3458,VALID,229,VALID,1.51349,
1999-09-24, 04:04:00,VALID,0,VALID,100,VALID,0,VALID,18.3334,VALID,228,VALID,1.41871,
1999-09-24, 04:05:00,VALID,0,VALID,100,VALID,0.0509425,VALID,18.3063,VALID,226,VALID,1.9981,
1999-09-24, 04:06:00,VALID,0,VALID,100,VALID,0.101885,VALID,18.3022,VALID,228,VALID,1.75,
1999-09-24, 04:07:00,VALID,0,VALID,100,VALID,0.0679233,VALID,18.3024,VALID,230,VALID,1.68627,
1999-09-24, 04:08:00,VALID,0,VALID,100,VALID,0.0849042,VALID,18.2858,VALID,235,VALID,1.96138,
1999-09-24, 04:09:00,VALID,0,VALID,100,VALID,0.0679233,VALID,18.2955,VALID,223,VALID,1.84629,